$DATE,$TIME,DM0600B,DM0602B,DM0604B,DM0614B,DM0616B,DM0618B,DM0624B,DM0628B,DM0630B,DM0634B,DM0606B,DM0608B,DM0610B
10/02/94,00:00:00,2,0,25,36,27,15,41,77,26,0,14,15,4
10/02/94,00:05:00,1,0,18,59,29,17,45,77,41,0,15,17,4
10/02/94,00:10:00,0,0,30,40,32,18,48,77,30,0,12,12,4
10/02/94,00:15:00,23,0,26,46,30,17,46,77,26,0,9,10,4
10/02/94,00:20:00,0,0,26,41,25,15,39,77,26,0,8,8,4
10/02/94,00:25:00,21,0,17,36,27,15,41,77,26,0,7,7,4
10/02/94,00:30:00,24,0,44,41,29,17,45,77,26,0,6,6,4
10/02/94,00:35:00,1,0,15,35,30,17,45,77,26,0,5,16,4
10/02/94,00:40:00,0,0,19,39,21,12,32,77,26,0,5,16,5
10/02/94,00:45:00,34,0,6,31,22,12,34,77,26,0,10,12,5
10/02/94,00:50:00,7,0,35,38,19,11,30,76,26,0,16,9,5
10/02/94,00:55:00,31,0,53,45,20,12,31,77,26,0,13,7,5
10/02/94,01:00:00,21,0,24,48,23,13,36,77,26,0,10,11,5
10/02/94,01:05:00,0,0,17,46,24,14,37,77,26,0,8,18,4
10/02/94,01:10:00,0,0,24,43,26,15,40,77,26,0,7,14,4
10/02/94,01:15:00,0,0,26,42,28,16,42,77,26,0,6,10,4
10/02/94,01:20:00,0,0,24,51,27,15,41,77,26,0,6,8,4
10/02/94,01:25:00,0,0,25,45,31,17,46,77,37,0,5,6,4
10/02/94,01:30:00,0,0,18,43,30,17,46,77,26,0,5,7,5
10/02/94,01:35:00,0,0,37,37,30,17,46,77,26,0,5,16,5
10/02/94,01:40:00,0,0,15,46,29,17,45,77,26,0,5,15,5
10/02/94,01:45:00,5,0,19,40,26,15,40,77,26,0,4,11,5
10/02/94,01:50:00,0,0,39,35,25,14,38,77,26,0,6,9,5
10/02/94,01:55:00,30,0,41,53,29,16,44,77,26,0,13,7,5
10/02/94,02:00:00,1,0,42,45,32,18,49,77,26,0,14,6,5
10/02/94,02:05:00,0,0,18,37,36,20,54,77,26,0,11,5,5
10/02/94,02:10:00,29,0,50,40,37,21,56,77,49,0,9,5,5
10/02/94,02:15:00,0,0,46,27,42,23,63,77,33,0,7,8,5
10/02/94,02:20:00,14,0,29,35,33,19,50,77,32,0,6,16,5
10/02/94,02:25:00,1,0,11,39,30,17,46,77,33,0,6,12,5
10/02/94,02:30:00,15,0,19,45,29,17,45,77,33,0,6,9,5
10/02/94,02:35:00,25,0,20,26,29,16,44,77,33,0,6,7,5
10/02/94,02:40:00,0,0,16,39,27,16,42,77,33,0,13,9,5
10/02/94,02:45:00,0,0,25,41,28,16,43,77,33,0,16,18,5
10/02/94,02:50:00,13,0,15,41,28,16,43,77,33,0,13,14,5
10/02/94,02:55:00,1,0,4,49,27,16,42,77,48,0,10,11,6
10/02/94,03:00:00,3,0,16,45,26,15,39,77,33,0,8,8,5
10/02/94,03:05:00,0,0,16,50,23,13,35,77,26,0,7,7,5
10/02/94,03:10:00,11,0,23,40,21,12,32,77,26,0,7,15,5
10/02/94,03:15:00,36,0,42,28,20,12,31,77,40,0,14,19,4
10/02/94,03:20:00,5,0,16,55,19,11,29,77,26,0,15,13,5
10/02/94,03:25:00,0,0,26,40,18,11,28,77,26,0,11,10,4
10/02/94,03:30:00,3,0,41,42,17,10,27,77,26,0,9,8,5
10/02/94,03:35:00,0,0,38,37,17,10,26,77,26,0,8,15,4
10/02/94,03:40:00,12,0,27,46,17,10,26,77,27,0,10,20,4
10/02/94,03:45:00,25,0,12,56,17,10,26,77,26,0,17,14,4
10/02/94,03:50:00,17,0,23,46,17,10,27,77,26,0,14,10,4
10/02/94,03:55:00,8,0,13,45,18,10,27,78,26,0,11,8,5
10/02/94,04:00:00,0,0,30,43,18,11,29,78,26,0,9,15,5
10/02/94,04:05:00,12,0,28,51,21,12,33,77,27,0,7,19,5
10/02/94,04:10:00,3,0,10,45,23,13,35,77,26,0,9,13,5
10/02/94,04:15:00,0,0,15,40,23,13,36,77,26,0,17,10,5
10/02/94,04:20:00,13,0,20,38,23,13,36,77,26,0,14,8,5
10/02/94,04:25:00,2,0,12,44,21,12,33,77,31,0,11,7,5
10/02/94,04:30:00,12,0,16,38,19,11,30,77,26,0,9,17,5
10/02/94,04:35:00,24,0,22,40,16,9,25,77,26,0,7,18,5
10/02/94,04:40:00,1,0,15,34,13,8,21,77,26,0,8,13,5
10/02/94,04:45:00,23,0,4,52,11,7,19,77,26,0,16,10,5
10/02/94,04:50:00,2,0,17,58,11,6,17,77,26,0,18,16,5
10/02/94,04:55:00,7,0,24,44,11,6,17,77,26,0,13,20,5
10/02/94,05:00:00,1,2,6,52,10,6,16,77,26,0,11,14,5
10/02/94,05:05:00,1,0,19,44,8,5,14,77,26,0,10,11,6
10/02/94,05:10:00,8,1,4,46,8,5,13,77,26,0,17,18,16
10/02/94,05:15:00,21,0,10,47,7,5,12,77,26,0,18,19,13
10/02/94,05:20:00,15,0,16,49,7,5,12,77,26,0,14,13,11
10/02/94,05:25:00,0,0,8,49,7,5,12,77,26,0,11,10,9
10/02/94,05:30:00,7,0,30,49,8,5,13,77,26,0,11,19,8
10/02/94,05:35:00,0,0,10,47,7,4,12,77,26,0,19,21,7
10/02/94,05:40:00,0,0,19,47,7,4,11,77,26,0,17,14,7
10/02/94,05:45:00,8,0,6,48,6,4,10,77,26,0,12,11,7
10/02/94,05:50:00,0,0,4,51,6,4,10,77,26,0,12,20,13
10/02/94,05:55:00,4,0,15,39,6,4,10,77,42,0,19,21,15
10/02/94,06:00:00,5,3,3,50,5,3,9,77,26,0,17,14,11
10/02/94,06:05:00,5,3,0,46,5,3,9,78,26,0,13,11,10
10/02/94,06:10:00,1,0,25,45,5,3,8,77,26,0,11,19,8
10/02/94,06:15:00,0,0,17,51,4,3,7,78,26,0,19,22,7
10/02/94,06:20:00,15,5,10,60,3,2,6,77,26,0,19,15,7
10/02/94,06:25:00,0,0,20,54,3,2,5,77,26,0,15,13,13
10/02/94,06:30:00,11,0,4,50,2,2,4,77,26,0,12,23,16
10/02/94,06:35:00,0,0,13,57,1,1,4,77,26,0,11,20,11
10/02/94,06:40:00,21,2,0,58,1,1,3,77,26,0,17,14,9
10/02/94,06:45:00,11,0,11,62,1,1,3,77,27,0,21,16,8
10/02/94,06:50:00,3,0,18,57,1,1,3,77,27,0,16,23,7
10/02/94,06:55:00,15,0,6,50,1,1,4,76,26,0,13,16,6
10/02/94,07:00:00,4,1,17,51,1,1,4,76,27,0,12,12,14
10/02/94,07:05:00,25,14,4,59,1,1,3,76,26,0,17,20,16
10/02/94,07:10:00,31,5,15,56,1,1,3,76,26,0,15,16,12
10/02/94,07:15:00,4,4,25,49,1,1,3,76,26,0,13,13,10
10/02/94,07:20:00,12,2,0,59,1,1,2,76,26,0,10,10,9
10/02/94,07:25:00,2,1,6,43,0,0,1,76,30,0,9,9,8
10/02/94,07:30:00,0,1,13,60,0,0,0,76,30,0,10,17,7
10/02/94,07:35:00,3,8,10,62,0,0,0,76,30,0,18,21,7
10/02/94,07:40:00,20,3,9,56,0,0,0,76,30,0,16,14,7
10/02/94,07:45:00,14,15,21,61,0,0,0,76,30,0,13,11,6
10/02/94,07:50:00,2,21,21,63,0,0,0,76,34,0,11,9,6
10/02/94,07:55:00,2,0,10,55,0,0,0,76,33,0,9,13,6
10/02/94,08:00:00,33,22,7,60,0,0,0,76,33,0,10,21,6
10/02/94,08:05:00,13,11,2,57,0,0,0,76,48,0,17,15,6
10/02/94,08:10:00,31,13,24,54,0,0,0,145,37,0,16,12,7
10/02/94,08:15:00,37,7,28,57,0,0,0,82,34,0,14,9,7
10/02/94,08:20:00,63,13,18,48,0,0,0,76,33,0,11,17,7
10/02/94,08:25:00,62,10,18,48,0,0,0,75,33,0,10,15,6
10/02/94,08:30:00,62,9,17,45,0,0,0,75,33,0,9,12,6
10/02/94,08:35:00,60,9,2,46,0,0,0,75,33,0,8,10,6
10/02/94,08:40:00,56,6,11,48,0,0,0,75,33,0,8,8,6
10/02/94,08:45:00,33,7,4,42,0,0,0,76,33,0,8,7,6
10/02/94,08:50:00,41,0,4,41,0,0,0,76,33,0,7,7,6
10/02/94,08:55:00,49,1,9,50,0,0,0,76,40,0,7,6,6
10/02/94,09:00:00,43,0,19,38,0,0,0,76,33,0,7,9,6
10/02/94,09:05:00,55,6,10,47,0,0,0,76,33,0,7,19,5
10/02/94,09:10:00,34,0,10,48,0,0,0,76,33,0,7,15,6
10/02/94,09:15:00,39,0,16,34,0,0,0,76,33,0,7,11,7
10/02/94,09:20:00,46,0,19,46,0,0,0,77,33,0,7,9,6
10/02/94,09:25:00,55,0,6,47,0,0,0,76,33,0,7,9,6
10/02/94,09:30:00,41,0,10,47,0,0,0,76,33,0,8,19,6
10/02/94,09:35:00,45,0,0,49,0,0,0,76,33,0,16,17,6
10/02/94,09:40:00,61,1,7,42,0,0,0,76,34,0,14,12,6
10/02/94,09:45:00,48,0,15,48,0,0,0,100,34,0,12,10,6
10/02/94,09:50:00,33,0,6,54,0,0,0,99,34,0,10,11,6
10/02/94,09:55:00,39,0,13,40,0,0,0,76,34,0,9,23,5
10/02/94,10:00:00,57,3,3,53,0,0,0,76,35,0,17,17,5
10/02/94,10:05:00,55,0,2,40,0,0,0,76,35,0,17,12,5
10/02/94,10:10:00,47,0,13,34,0,0,0,76,35,0,13,10,5
10/02/94,10:15:00,42,0,24,44,0,0,0,79,33,0,11,8,5
10/02/94,10:20:00,47,0,12,41,0,0,0,79,33,0,9,15,6
10/02/94,10:25:00,38,0,9,48,0,0,0,79,32,0,8,19,6
10/02/94,10:30:00,41,0,3,37,0,0,0,78,32,0,7,13,6
10/02/94,10:35:00,67,0,7,47,0,0,0,79,32,0,8,10,6
10/02/94,10:40:00,48,0,9,45,0,0,0,79,32,0,17,8,5
10/02/94,10:45:00,48,1,6,46,0,0,0,78,32,0,17,11,5
10/02/94,10:50:00,68,0,0,41,0,0,0,79,40,0,13,20,5
10/02/94,10:55:00,45,0,5,44,0,0,0,80,40,0,11,14,5
10/02/94,11:00:00,52,0,4,47,0,0,0,79,40,0,9,11,5
10/02/94,11:05:00,55,0,13,42,0,0,0,79,40,0,8,10,5
10/02/94,11:10:00,58,0,13,46,0,0,0,79,40,0,13,20,5
10/02/94,11:15:00,44,0,16,17,0,0,0,79,40,0,17,17,5
10/02/94,11:20:00,49,1,7,47,0,0,0,79,40,0,14,13,5
10/02/94,11:25:00,58,0,16,56,0,0,0,79,40,0,11,10,6
10/02/94,11:30:00,48,1,0,51,0,0,0,79,40,0,9,12,6
10/02/94,11:35:00,59,3,16,52,0,0,0,79,40,0,8,21,6
10/02/94,11:40:00,36,1,6,39,0,0,0,79,40,0,7,15,5
10/02/94,11:45:00,49,2,0,46,0,0,0,79,40,0,13,11,5
10/02/94,11:50:00,46,2,11,52,0,0,0,79,40,0,19,9,5
10/02/94,11:55:00,50,0,6,46,0,0,0,79,54,0,15,12,5
10/02/94,12:00:00,47,0,19,49,0,0,0,79,41,0,12,21,5
10/02/94,12:05:00,38,0,18,41,0,0,0,79,41,0,10,15,5
10/02/94,12:10:00,60,0,23,48,0,0,0,79,41,0,8,11,5
10/02/94,12:15:00,45,0,7,53,0,0,0,79,41,0,13,11,5
10/02/94,12:20:00,54,2,26,42,0,0,0,76,40,0,19,21,5
10/02/94,12:25:00,69,0,6,37,0,0,0,79,40,0,15,16,5
10/02/94,12:30:00,51,0,11,60,0,0,0,76,41,0,12,12,6
10/02/94,12:35:00,48,0,36,51,0,0,0,76,41,0,9,9,6
10/02/94,12:40:00,54,0,0,35,0,0,0,76,41,0,8,14,6
10/02/94,12:45:00,28,0,15,41,0,0,0,76,40,0,13,21,6
10/02/94,12:50:00,38,0,22,41,0,0,0,76,40,0,17,15,5
10/02/94,12:55:00,37,0,30,53,0,0,0,76,40,0,14,11,5
10/02/94,13:00:00,43,2,15,43,0,0,0,76,40,0,10,9,5
10/02/94,13:05:00,41,0,36,46,0,0,0,78,33,0,9,11,5
10/02/94,13:10:00,67,0,12,35,0,0,0,78,32,0,7,20,5
10/02/94,13:15:00,57,0,15,41,0,0,0,78,32,0,6,16,5
10/02/94,13:20:00,60,0,33,52,0,0,0,78,32,0,8,11,5
10/02/94,13:25:00,56,0,3,44,0,0,0,78,29,0,15,10,5
10/02/94,13:30:00,39,0,6,37,0,0,0,75,28,0,15,8,5
10/02/94,13:35:00,24,0,13,39,0,0,0,75,28,0,12,7,6
10/02/94,13:40:00,46,0,24,49,0,0,0,76,28,0,10,6,6
10/02/94,13:45:00,45,0,40,46,0,0,0,76,28,0,8,15,5
10/02/94,13:50:00,18,0,14,49,0,0,0,76,28,0,7,17,5
10/02/94,13:55:00,52,0,7,44,0,0,0,76,28,0,6,12,5
10/02/94,14:00:00,42,0,13,52,0,0,0,76,28,0,6,9,5
10/02/94,14:05:00,50,0,13,33,0,0,0,76,28,0,6,8,5
10/02/94,14:10:00,35,0,18,39,0,0,0,76,28,0,7,7,5
10/02/94,14:15:00,70,0,10,47,0,0,0,76,28,0,15,16,5
10/02/94,14:20:00,58,0,9,44,0,0,0,76,28,0,14,16,4
10/02/94,14:25:00,46,0,23,36,0,0,0,76,28,0,11,11,5
10/02/94,14:30:00,50,0,22,37,0,0,0,76,28,0,9,9,5
10/02/94,14:35:00,37,0,11,44,0,0,0,76,29,0,7,8,5
10/02/94,14:40:00,63,0,20,53,0,0,0,77,28,0,7,6,5
10/02/94,14:45:00,46,0,4,53,0,0,0,76,28,0,6,10,6
10/02/94,14:50:00,56,0,26,37,0,0,0,76,28,0,5,19,5
10/02/94,14:55:00,35,0,38,52,0,0,0,76,29,0,6,14,5
10/02/94,15:00:00,58,0,15,41,0,0,0,76,28,0,5,10,5
10/02/94,15:05:00,34,0,23,37,0,0,0,76,28,0,5,8,5
10/02/94,15:10:00,27,0,0,50,0,0,0,76,28,0,11,11,5
10/02/94,15:15:00,1,0,16,54,0,0,0,76,28,0,19,22,5
10/02/94,15:20:00,6,0,27,55,0,0,0,76,28,0,16,17,5
10/02/94,15:25:00,6,0,27,50,0,0,0,76,28,0,12,12,15
10/02/94,15:30:00,32,0,4,37,0,0,0,76,29,0,11,17,15
10/02/94,15:35:00,3,0,63,41,0,0,0,76,28,0,18,23,11
10/02/94,15:40:00,24,0,22,59,0,0,0,76,51,0,18,15,9
10/02/94,15:45:00,13,0,27,49,0,0,0,76,28,0,14,13,8
10/02/94,15:50:00,26,0,16,48,0,0,0,77,28,0,12,22,15
10/02/94,15:55:00,9,0,32,46,0,0,0,76,28,0,19,19,15
10/02/94,16:00:00,23,0,29,41,0,0,0,76,28,0,18,13,11
10/02/94,16:05:00,10,0,13,43,0,0,0,77,28,0,13,16,9
10/02/94,16:10:00,20,0,18,57,0,0,0,76,28,0,14,25,8
10/02/94,16:15:00,13,0,20,54,0,0,0,76,28,0,21,17,15
10/02/94,16:20:00,25,0,20,54,0,0,0,76,28,0,18,12,15
10/02/94,16:25:00,21,0,7,53,0,0,0,76,29,0,13,19,11
10/02/94,16:30:00,16,0,17,42,0,0,0,76,28,0,12,22,9
10/02/94,16:35:00,8,0,8,56,0,0,0,77,29,0,19,14,8
10/02/94,16:40:00,3,0,10,57,0,0,0,76,28,0,20,17,18
10/02/94,16:45:00,20,0,8,45,0,0,0,76,28,0,15,23,14
10/02/94,16:50:00,21,0,19,51,0,0,0,76,28,0,12,15,11
10/02/94,16:55:00,23,0,37,43,0,0,0,76,27,0,18,15,9
10/02/94,17:00:00,10,0,4,50,0,0,0,76,27,0,21,24,8
10/02/94,17:05:00,33,0,3,49,0,0,0,76,27,0,16,18,7
10/02/94,17:10:00,12,0,25,49,0,0,0,76,26,0,13,14,19
10/02/94,17:15:00,28,0,8,47,0,0,0,76,26,0,19,23,15
10/02/94,17:20:00,9,0,16,53,0,0,0,76,26,0,19,18,11
10/02/94,17:25:00,5,0,40,51,0,0,0,76,26,0,14,13,9
10/02/94,17:30:00,34,0,16,42,0,0,0,76,26,0,13,18,8
10/02/94,17:35:00,1,0,15,47,0,0,0,76,26,0,21,23,18
10/02/94,17:40:00,2,0,10,48,0,0,0,76,26,0,17,15,13
10/02/94,17:45:00,5,0,45,39,0,0,0,76,26,0,13,14,10
10/02/94,17:50:00,2,0,8,58,0,0,0,76,26,0,14,23,8
10/02/94,17:55:00,20,0,32,43,0,0,0,76,28,0,21,19,9
10/02/94,18:00:00,5,0,16,58,0,0,0,76,26,0,18,13,18
10/02/94,18:05:00,2,0,38,39,0,0,0,76,26,0,13,17,13
10/02/94,18:10:00,19,0,0,27,0,0,1,76,26,0,12,24,10
10/02/94,18:15:00,30,0,27,49,0,1,2,76,26,0,19,15,8
10/02/94,18:20:00,2,0,44,50,1,1,3,76,27,0,19,14,10
10/02/94,18:25:00,3,0,13,44,1,1,3,76,27,0,14,23,17
10/02/94,18:30:00,0,0,4,54,1,1,3,76,27,0,11,18,12
10/02/94,18:35:00,0,0,36,31,1,1,4,76,27,0,15,12,9
10/02/94,18:40:00,17,0,26,58,1,1,4,76,26,0,21,18,8
10/02/94,18:45:00,26,0,21,56,2,1,4,76,26,0,16,22,7
10/02/94,18:50:00,14,0,33,52,2,2,4,76,26,0,12,14,7
10/02/94,18:55:00,17,0,8,46,2,2,5,76,27,0,14,15,19
10/02/94,19:00:00,3,0,18,49,3,2,6,76,27,0,20,22,14
10/02/94,19:05:00,3,0,23,36,4,2,7,76,27,0,16,15,10
10/02/94,19:10:00,4,8,1,45,4,3,8,76,27,0,12,11,9
10/02/94,19:15:00,0,0,13,58,5,3,9,76,27,0,12,20,8
10/02/94,19:20:00,2,0,24,48,6,4,10,76,27,0,19,21,7
10/02/94,19:25:00,11,0,11,46,6,4,10,76,27,0,17,14,6
10/02/94,19:30:00,5,0,32,52,7,4,12,76,26,0,12,12,7
10/02/94,19:35:00,12,0,12,42,8,5,13,76,26,0,10,21,17
10/02/94,19:40:00,0,0,31,51,8,5,14,77,26,0,9,18,13
10/02/94,19:45:00,18,0,19,44,9,5,15,77,26,0,15,13,9
10/02/94,19:50:00,22,0,29,46,10,6,16,77,26,0,19,10,8
10/02/94,19:55:00,4,0,33,38,11,6,17,77,26,0,15,16,7
10/02/94,20:00:00,0,0,3,46,12,7,20,77,26,0,11,20,6
10/02/94,20:05:00,9,0,11,43,12,7,20,77,26,0,9,14,6
10/02/94,20:10:00,1,0,22,56,13,8,21,129,26,0,13,11,7
10/02/94,20:15:00,0,0,6,53,13,8,21,76,26,0,20,20,17
10/02/94,20:20:00,0,0,27,57,13,8,20,77,26,0,16,17,12
10/02/94,20:25:00,1,0,15,46,13,8,21,76,26,0,12,12,10
10/02/94,20:30:00,1,0,17,41,14,8,23,77,26,0,10,9,8
10/02/94,20:35:00,20,0,4,52,15,9,24,77,26,0,9,14,7
10/02/94,20:40:00,33,0,6,57,16,9,25,76,32,0,15,21,7
10/02/94,20:45:00,5,0,17,40,17,10,26,76,33,0,11,10,6
10/02/94,20:50:00,20,0,5,36,17,10,27,77,33,0,9,18,6
10/02/94,20:55:00,4,0,24,52,18,11,29,77,33,0,15,20,6
10/02/94,21:00:00,31,0,32,33,19,11,29,77,33,0,17,14,6
10/02/94,21:05:00,0,1,10,57,18,10,28,77,33,0,13,10,5
10/02/94,21:10:00,0,0,27,50,17,10,27,77,33,0,10,12,5
10/02/94,21:15:00,12,0,21,48,17,10,26,77,33,0,8,22,6
10/02/94,21:20:00,1,0,34,56,18,10,28,128,33,0,12,16,6
10/02/94,21:25:00,4,0,17,48,19,11,29,77,33,0,21,12,13
10/02/94,21:30:00,0,0,49,43,20,12,31,77,33,0,17,20,14
10/02/94,21:35:00,29,0,19,43,21,12,33,77,33,0,12,15,10
10/02/94,21:40:00,23,0,27,38,22,13,34,77,33,0,10,12,9
10/02/94,21:45:00,15,0,14,43,22,12,34,77,33,0,8,9,7
10/02/94,21:50:00,25,0,38,48,21,12,33,77,33,0,11,15,7
10/02/94,21:55:00,4,0,38,43,21,12,32,77,33,0,17,19,6
10/02/94,22:00:00,17,0,15,55,21,12,32,77,33,0,14,13,6
10/02/94,22:05:00,4,0,14,35,21,12,33,77,33,0,11,10,6
10/02/94,22:10:00,22,0,10,47,21,12,33,77,33,0,9,9,6
10/02/94,22:15:00,8,0,9,47,21,12,33,77,33,0,9,18,5
10/02/94,22:20:00,1,0,29,44,21,12,33,77,37,0,16,18,5
10/02/94,22:25:00,9,0,22,55,21,12,33,77,33,0,15,13,5
10/02/94,22:30:00,8,0,9,49,21,12,32,77,33,0,11,10,5
10/02/94,22:35:00,27,0,19,48,20,12,32,77,33,0,9,9,6
10/02/94,22:40:00,0,0,17,43,20,12,32,77,33,0,8,18,6
10/02/94,22:45:00,13,0,19,48,21,12,32,77,33,0,7,18,5
10/02/94,22:50:00,14,0,7,41,21,12,32,77,33,0,12,13,5
10/02/94,22:55:00,20,0,19,44,21,12,33,77,33,0,18,10,5
10/02/94,23:00:00,1,0,38,46,22,12,34,77,33,0,15,8,5
10/02/94,23:05:00,11,0,19,48,23,13,35,77,33,0,11,13,5
10/02/94,23:10:00,6,0,29,41,22,13,34,77,33,0,9,20,5
10/02/94,23:15:00,4,0,14,42,22,13,34,77,33,0,8,14,5
10/02/94,23:20:00,1,0,12,36,22,13,34,77,33,0,10,10,5
10/02/94,23:25:00,39,0,22,55,22,13,34,77,33,0,18,8,5
10/02/94,23:30:00,17,0,16,33,22,13,34,77,33,0,16,14,5
10/02/94,23:35:00,0,0,16,46,22,13,34,77,33,0,13,18,5
10/02/94,23:40:00,14,0,25,56,23,13,35,77,33,0,10,13,6
10/02/94,23:45:00,12,0,5,52,23,13,36,77,33,0,8,10,6
10/02/94,23:50:00,3,0,0,57,24,13,36,77,33,0,8,9,5
10/02/94,23:55:00,9,2,0,48,24,13,36,77,33,0,14,18,5
10/03/94,00:00:00,0,0,11,33,25,14,38,77,33,0,16,17,5
